GLO1623 SBCF-SBBR

Flight info

Callsign GLO1623
Flight time 1h 0m
Altitude 38000
Route GIMPO UZ33 OPGOL
Aircraft B737/M-SDFGIKLORWXY/LB1

Departure

Time 2026-05-08 21:09
Airport Tancredo Neves International Airport (SBCF)

Arrival

Time 2026-05-08 22:09
Airport Presidente Juscelino Kubitschek International Airport (SBBR)
Time Latitude Longitude Altitude Speed Heading
2026-05-08 20:42 -19.62952 -43.96720 2800 ft 0 kts 51°
2026-05-08 20:57 -19.62964 -43.96736 2796 ft 3 kts 43°
2026-05-08 20:57 -19.62982 -43.96750 2792 ft 3 kts 25°
2026-05-08 20:57 -19.63001 -43.96756 2794 ft 3 kts 347°
2026-05-08 20:57 -19.63012 -43.96752 2791 ft 0 kts 319°
2026-05-08 21:05 -19.63009 -43.96754 2788 ft 4 kts 319°
2026-05-08 21:06 -19.62959 -43.96800 2814 ft 11 kts 319°
2026-05-08 21:06 -19.62900 -43.96854 2814 ft 11 kts 319°
2026-05-08 21:06 -19.62843 -43.96905 2814 ft 11 kts 319°
2026-05-08 21:06 -19.62792 -43.96958 2814 ft 10 kts 300°
2026-05-08 21:07 -19.62788 -43.97031 2814 ft 10 kts 253°
2026-05-08 21:07 -19.62827 -43.97090 2812 ft 10 kts 230°
2026-05-08 21:07 -19.62871 -43.97143 2812 ft 9 kts 229°
2026-05-08 21:07 -19.62900 -43.97178 2812 ft 9 kts 229°
2026-05-08 21:08 -19.62961 -43.97239 2815 ft 9 kts 189°
2026-05-08 21:08 -19.62998 -43.97221 2813 ft 12 kts 140°
2026-05-08 21:08 -19.63236 -43.97001 2811 ft 81 kts 139°
2026-05-08 21:08 -19.63824 -43.96457 2812 ft 141 kts 139°
2026-05-08 21:09 -19.64696 -43.95671 2927 ft 179 kts 139°
2026-05-08 21:09 -19.65623 -43.94826 3631 ft 175 kts 135°
2026-05-08 21:09 -19.66523 -43.93968 4392 ft 172 kts 135°
2026-05-08 21:09 -19.67456 -43.93102 4869 ft 191 kts 135°
2026-05-08 21:10 -19.68541 -43.92115 5117 ft 219 kts 142°
2026-05-08 21:10 -19.70005 -43.91578 5458 ft 236 kts 178°
2026-05-08 21:10 -19.71595 -43.92041 6079 ft 243 kts 216°
2026-05-08 21:10 -19.72771 -43.93268 6949 ft 239 kts 234°
2026-05-08 21:11 -19.73621 -43.94793 7724 ft 243 kts 257°
2026-05-08 21:11 -19.73621 -43.96553 8510 ft 240 kts 291°
2026-05-08 21:11 -19.72771 -43.98035 9393 ft 235 kts 320°
2026-05-08 21:11 -19.71394 -43.98945 10257 ft 233 kts 339°
2026-05-08 21:12 -19.69887 -43.99553 11015 ft 237 kts 342°
2026-05-08 21:12 -19.68316 -44.00129 11837 ft 240 kts 343°
2026-05-08 21:12 -19.66720 -44.00714 12646 ft 245 kts 343°
2026-05-08 21:12 -19.65100 -44.01315 13449 ft 249 kts 342°
2026-05-08 21:13 -19.63455 -44.01933 14229 ft 253 kts 342°
2026-05-08 21:13 -19.61784 -44.02567 14978 ft 256 kts 342°
2026-05-08 21:13 -19.60093 -44.03213 15729 ft 260 kts 341°
2026-05-08 21:13 -19.58368 -44.03874 16446 ft 265 kts 341°
2026-05-08 21:14 -19.56637 -44.04536 17200 ft 269 kts 341°
2026-05-08 21:14 -19.54848 -44.05205 17849 ft 278 kts 342°
2026-05-08 21:14 -19.52921 -44.05884 18034 ft 304 kts 342°
2026-05-08 21:14 -19.50824 -44.06613 18169 ft 329 kts 342°
2026-05-08 21:15 -19.48577 -44.07398 18335 ft 352 kts 342°
2026-05-08 21:15 -19.46215 -44.08225 18522 ft 371 kts 342°
2026-05-08 21:15 -19.43721 -44.09102 18984 ft 380 kts 342°
2026-05-08 21:15 -19.41205 -44.10013 19610 ft 383 kts 341°
2026-05-08 21:16 -19.38683 -44.10943 20255 ft 385 kts 341°
2026-05-08 21:16 -19.36135 -44.11884 20882 ft 388 kts 341°
2026-05-08 21:16 -19.33569 -44.12828 21483 ft 392 kts 341°
2026-05-08 21:16 -19.31008 -44.13767 22094 ft 395 kts 341°
2026-05-08 21:17 -19.28402 -44.14777 22639 ft 400 kts 335°
2026-05-08 21:17 -19.26088 -44.16428 23171 ft 405 kts 318°
2026-05-08 21:17 -19.24011 -44.18474 23714 ft 409 kts 316°
2026-05-08 21:17 -19.21949 -44.20568 24165 ft 413 kts 316°
2026-05-08 21:18 -19.19867 -44.22687 24645 ft 415 kts 316°
2026-05-08 21:18 -19.17795 -44.24779 25144 ft 417 kts 316°
2026-05-08 21:18 -19.15674 -44.26900 25633 ft 420 kts 316°
2026-05-08 21:18 -19.13539 -44.29023 26129 ft 423 kts 316°
2026-05-08 21:19 -19.11388 -44.31152 26602 ft 425 kts 316°
2026-05-08 21:19 -19.09215 -44.33300 27077 ft 428 kts 315°
2026-05-08 21:19 -19.07027 -44.35461 27542 ft 431 kts 315°
2026-05-08 21:19 -19.04837 -44.37625 27996 ft 433 kts 315°
2026-05-08 21:20 -19.02619 -44.39815 28439 ft 436 kts 315°
2026-05-08 21:20 -19.00396 -44.42010 28898 ft 439 kts 315°
2026-05-08 21:20 -18.98164 -44.44223 29323 ft 441 kts 314°
2026-05-08 21:20 -18.95956 -44.46434 29749 ft 444 kts 314°
2026-05-08 21:21 -18.93712 -44.48690 30150 ft 446 kts 314°
2026-05-08 21:21 -18.91455 -44.50961 30503 ft 448 kts 314°
2026-05-08 21:21 -18.89190 -44.53239 30855 ft 450 kts 314°
2026-05-08 21:21 -18.86910 -44.55530 31261 ft 450 kts 314°
2026-05-08 21:22 -18.84636 -44.57810 31768 ft 448 kts 313°
2026-05-08 21:22 -18.82411 -44.60039 32311 ft 445 kts 313°
2026-05-08 21:22 -18.80169 -44.62284 32830 ft 443 kts 313°
2026-05-08 21:22 -18.77927 -44.64529 33342 ft 441 kts 313°
2026-05-08 21:23 -18.75699 -44.66759 33832 ft 439 kts 313°
2026-05-08 21:23 -18.73508 -44.68951 34235 ft 438 kts 313°
2026-05-08 21:23 -18.71288 -44.71171 34604 ft 438 kts 313°
2026-05-08 21:23 -18.69081 -44.73378 34972 ft 437 kts 313°
2026-05-08 21:24 -18.66877 -44.75581 35347 ft 435 kts 312°
2026-05-08 21:24 -18.64681 -44.77775 35703 ft 434 kts 312°
2026-05-08 21:24 -18.62479 -44.79974 36036 ft 434 kts 312°
2026-05-08 21:24 -18.60293 -44.82157 36397 ft 432 kts 312°
2026-05-08 21:25 -18.58139 -44.84306 36756 ft 430 kts 311°
2026-05-08 21:25 -18.55957 -44.86482 37055 ft 430 kts 311°
2026-05-08 21:25 -18.53784 -44.88650 37320 ft 430 kts 311°
2026-05-08 21:25 -18.51610 -44.90818 37632 ft 430 kts 311°
2026-05-08 21:26 -18.49431 -44.92989 37967 ft 428 kts 311°
2026-05-08 21:26 -18.45093 -44.97313 38042 ft 434 kts 311°
2026-05-08 21:27 -18.40704 -45.01678 38029 ft 430 kts 311°
2026-05-08 21:27 -18.36386 -45.05969 38029 ft 426 kts 311°
2026-05-08 21:28 -18.32076 -45.10253 38025 ft 425 kts 311°
2026-05-08 21:28 -18.27801 -45.14501 38027 ft 425 kts 311°
2026-05-08 21:29 -18.23500 -45.18770 38031 ft 425 kts 311°
2026-05-08 21:29 -18.19171 -45.23064 38046 ft 429 kts 311°
2026-05-08 21:30 -18.14789 -45.27412 38036 ft 440 kts 311°
2026-05-08 21:30 -18.10310 -45.31844 38016 ft 441 kts 311°
2026-05-08 21:31 -18.05833 -45.36272 38033 ft 441 kts 311°
2026-05-08 21:31 -18.01379 -45.40675 38025 ft 441 kts 311°
2026-05-08 21:32 -17.96897 -45.45100 38026 ft 441 kts 311°
2026-05-08 21:32 -17.92436 -45.49503 38025 ft 440 kts 311°
2026-05-08 21:33 -17.87985 -45.53894 38025 ft 438 kts 311°
2026-05-08 21:33 -17.83567 -45.58250 38030 ft 438 kts 311°
2026-05-08 21:34 -17.79126 -45.62626 38027 ft 437 kts 311°
2026-05-08 21:34 -17.74687 -45.66996 38026 ft 436 kts 311°
2026-05-08 21:35 -17.70283 -45.71329 38015 ft 436 kts 311°
2026-05-08 21:35 -17.65856 -45.75682 38019 ft 436 kts 311°
2026-05-08 21:36 -17.61433 -45.80028 38029 ft 436 kts 311°
2026-05-08 21:36 -17.57006 -45.84376 38021 ft 436 kts 311°
2026-05-08 21:37 -17.52588 -45.88709 38008 ft 436 kts 311°
2026-05-08 21:37 -17.48148 -45.93061 38017 ft 437 kts 311°
2026-05-08 21:38 -17.43708 -45.97409 38014 ft 437 kts 311°
2026-05-08 21:38 -17.39270 -46.01755 38012 ft 437 kts 311°
2026-05-08 21:39 -17.34818 -46.06111 38006 ft 437 kts 311°
2026-05-08 21:39 -17.30376 -46.10455 38006 ft 437 kts 311°
2026-05-08 21:40 -17.25957 -46.14774 37991 ft 437 kts 311°
2026-05-08 21:40 -17.21506 -46.19120 38007 ft 437 kts 311°
2026-05-08 21:41 -17.14834 -46.25630 37999 ft 436 kts 311°
2026-05-08 21:41 -17.10421 -46.29932 37997 ft 435 kts 311°
2026-05-08 21:42 -17.05999 -46.34241 37997 ft 435 kts 311°
2026-05-08 21:42 -17.01572 -46.38551 38009 ft 434 kts 311°
2026-05-08 21:43 -16.97154 -46.42850 37986 ft 433 kts 311°
2026-05-08 21:43 -16.92737 -46.47145 37985 ft 433 kts 311°
2026-05-08 21:44 -16.88328 -46.51430 38003 ft 432 kts 311°
2026-05-08 21:44 -16.83953 -46.55679 37983 ft 432 kts 311°
2026-05-08 21:45 -16.80187 -46.60445 38014 ft 423 kts 299°
2026-05-08 21:45 -16.76959 -46.65584 38005 ft 422 kts 298°
2026-05-08 21:46 -16.73747 -46.70681 37996 ft 423 kts 299°
2026-05-08 21:46 -16.70460 -46.75784 38000 ft 423 kts 299°
2026-05-08 21:47 -16.67146 -46.80880 38005 ft 423 kts 300°
2026-05-08 21:47 -16.63850 -46.85936 38005 ft 424 kts 300°
2026-05-08 21:48 -16.60530 -46.91028 38005 ft 424 kts 300°
2026-05-08 21:48 -16.58862 -46.93587 37671 ft 429 kts 300°
2026-05-08 21:48 -16.57202 -46.96133 37222 ft 427 kts 300°
2026-05-08 21:49 -16.55530 -46.98694 36617 ft 426 kts 300°
2026-05-08 21:49 -16.53864 -47.01245 35966 ft 426 kts 301°
2026-05-08 21:49 -16.52192 -47.03805 35247 ft 427 kts 301°
2026-05-08 21:49 -16.50512 -47.06377 34504 ft 430 kts 301°
2026-05-08 21:50 -16.48817 -47.08972 33686 ft 433 kts 302°
2026-05-08 21:50 -16.47134 -47.11548 32829 ft 436 kts 302°
2026-05-08 21:50 -16.45422 -47.14165 31989 ft 438 kts 302°
2026-05-08 21:50 -16.43695 -47.16805 31105 ft 442 kts 302°
2026-05-08 21:51 -16.41954 -47.19465 30335 ft 443 kts 303°
2026-05-08 21:51 -16.40224 -47.22107 29572 ft 442 kts 303°
2026-05-08 21:51 -16.38401 -47.24668 28858 ft 439 kts 311°
2026-05-08 21:51 -16.36096 -47.26769 27939 ft 441 kts 320°
2026-05-08 21:52 -16.33673 -47.28743 27199 ft 439 kts 321°
2026-05-08 21:52 -16.31295 -47.30660 26543 ft 435 kts 321°
2026-05-08 21:52 -16.28918 -47.32591 25882 ft 432 kts 321°
2026-05-08 21:52 -16.26567 -47.34523 25230 ft 429 kts 321°
2026-05-08 21:53 -16.24235 -47.36457 24574 ft 427 kts 321°
2026-05-08 21:53 -16.21925 -47.38384 23923 ft 424 kts 321°
2026-05-08 21:53 -16.19623 -47.40308 23200 ft 423 kts 321°
2026-05-08 21:53 -16.17334 -47.42221 22500 ft 419 kts 321°
2026-05-08 21:54 -16.15096 -47.44091 21844 ft 415 kts 322°
2026-05-08 21:54 -16.12856 -47.45962 21198 ft 411 kts 322°
2026-05-08 21:54 -16.10626 -47.47822 20562 ft 407 kts 322°
2026-05-08 21:54 -16.09166 -47.49041 20147 ft 405 kts 322°
2026-05-08 21:55 -16.06258 -47.51465 19288 ft 401 kts 322°
2026-05-08 21:55 -16.04080 -47.53280 18595 ft 400 kts 322°
2026-05-08 21:55 -16.01901 -47.55096 17765 ft 401 kts 322°
2026-05-08 21:56 -15.98313 -47.58105 16632 ft 394 kts 319°
2026-05-08 21:56 -15.96618 -47.60327 15984 ft 393 kts 298°
2026-05-08 21:56 -15.95607 -47.63899 15181 ft 390 kts 275°
2026-05-08 21:56 -15.95655 -47.66704 14581 ft 387 kts 268°
2026-05-08 21:57 -15.95782 -47.68583 14148 ft 386 kts 266°
2026-05-08 21:57 -15.96000 -47.71358 13483 ft 383 kts 266°
2026-05-08 21:57 -15.96217 -47.74107 12830 ft 379 kts 266°
2026-05-08 21:57 -15.96416 -47.76791 12213 ft 374 kts 266°
2026-05-08 21:58 -15.96600 -47.79435 11593 ft 359 kts 267°
2026-05-08 21:58 -15.96769 -47.81981 11093 ft 344 kts 267°
2026-05-08 21:58 -15.96927 -47.84420 10858 ft 330 kts 267°
2026-05-08 21:58 -15.97075 -47.86756 10704 ft 317 kts 267°
2026-05-08 21:59 -15.97216 -47.88974 10569 ft 304 kts 267°
2026-05-08 21:59 -15.97352 -47.91117 10431 ft 292 kts 267°
2026-05-08 21:59 -15.97483 -47.93186 10316 ft 280 kts 267°
2026-05-08 21:59 -15.97608 -47.95169 10197 ft 270 kts 267°
2026-05-08 22:00 -15.97729 -47.97086 10056 ft 261 kts 267°
2026-05-08 22:00 -15.97849 -47.98967 9717 ft 260 kts 267°
2026-05-08 22:00 -15.97968 -48.00830 9442 ft 256 kts 267°
2026-05-08 22:00 -15.98084 -48.02649 9010 ft 260 kts 267°
2026-05-08 22:01 -15.98203 -48.04517 8688 ft 259 kts 267°
2026-05-08 22:01 -15.98322 -48.06393 8326 ft 259 kts 267°
2026-05-08 22:01 -15.98441 -48.08258 7991 ft 259 kts 267°
2026-05-08 22:01 -15.98560 -48.10128 7661 ft 258 kts 267°
2026-05-08 22:02 -15.98678 -48.11992 7326 ft 258 kts 267°
2026-05-08 22:02 -15.98796 -48.13860 7000 ft 258 kts 267°
2026-05-08 22:02 -15.98783 -48.15723 6647 ft 258 kts 285°
2026-05-08 22:02 -15.97971 -48.17329 6350 ft 248 kts 315°
2026-05-08 22:03 -15.96586 -48.18280 5997 ft 240 kts 340°
2026-05-08 22:03 -15.94994 -48.18618 5676 ft 230 kts
2026-05-08 22:03 -15.93539 -48.18141 5481 ft 215 kts 36°
2026-05-08 22:03 -15.92523 -48.17113 5454 ft 195 kts 55°
2026-05-08 22:04 -15.91836 -48.15974 5440 ft 177 kts 59°
2026-05-08 22:04 -15.91226 -48.14893 5454 ft 172 kts 59°
2026-05-08 22:04 -15.90628 -48.13836 5461 ft 169 kts 59°
2026-05-08 22:04 -15.90027 -48.12781 5464 ft 170 kts 59°
2026-05-08 22:05 -15.89428 -48.11720 5460 ft 171 kts 63°
2026-05-08 22:05 -15.89164 -48.10523 5463 ft 172 kts 85°
2026-05-08 22:05 -15.89070 -48.09297 5427 ft 173 kts 84°
2026-05-08 22:05 -15.88976 -48.08055 5369 ft 172 kts 84°
2026-05-08 22:06 -15.88893 -48.06838 5335 ft 164 kts 85°
2026-05-08 22:06 -15.88817 -48.05675 5266 ft 159 kts 85°
2026-05-08 22:06 -15.88743 -48.04532 5258 ft 158 kts 85°
2026-05-08 22:06 -15.88672 -48.03429 5208 ft 149 kts 85°
2026-05-08 22:07 -15.88605 -48.02381 5099 ft 144 kts 85°
2026-05-08 22:07 -15.88538 -48.01337 4950 ft 145 kts 84°
2026-05-08 22:07 -15.88471 -48.00306 4749 ft 144 kts 85°
2026-05-08 22:07 -15.88405 -47.99274 4571 ft 142 kts 85°
2026-05-08 22:08 -15.88338 -47.98245 4375 ft 143 kts 85°
2026-05-08 22:08 -15.88272 -47.97212 4204 ft 144 kts 85°
2026-05-08 22:08 -15.88205 -47.96176 4005 ft 143 kts 86°
2026-05-08 22:08 -15.88143 -47.95132 3778 ft 146 kts 86°
2026-05-08 22:09 -15.88074 -47.94081 3573 ft 147 kts 86°
2026-05-08 22:09 -15.88011 -47.93057 3485 ft 136 kts 88°
2026-05-08 22:09 -15.87955 -47.92265 3476 ft 80 kts 86°
2026-05-08 22:09 -15.87932 -47.91961 3468 ft 21 kts 78°
2026-05-08 22:10 -15.87892 -47.91838 3467 ft 16 kts 65°
2026-05-08 22:10 -15.87835 -47.91742 3463 ft 15 kts 56°
2026-05-08 22:10 -15.87777 -47.91652 3459 ft 15 kts 56°
2026-05-08 22:10 -15.87731 -47.91580 3460 ft 9 kts 56°
2026-05-08 22:11 -15.87676 -47.91552 3461 ft 10 kts
2026-05-08 22:11 -15.87595 -47.91556 3464 ft 13 kts 356°
2026-05-08 22:11 -15.87508 -47.91562 3468 ft 13 kts 356°
2026-05-08 22:11 -15.87418 -47.91568 3470 ft 13 kts 356°
2026-05-08 22:12 -15.87327 -47.91575 3470 ft 13 kts 356°
2026-05-08 22:12 -15.87238 -47.91580 3471 ft 13 kts 356°
2026-05-08 22:12 -15.87152 -47.91586 3470 ft 12 kts 357°
2026-05-08 22:12 -15.87069 -47.91591 3469 ft 12 kts 354°
2026-05-08 22:13 -15.86987 -47.91608 3471 ft 12 kts 315°
2026-05-08 22:13 -15.86965 -47.91691 3470 ft 12 kts 301°
2026-05-08 22:13 -15.86905 -47.91744 3471 ft 11 kts 334°
2026-05-08 22:13 -15.86880 -47.91788 3469 ft 6 kts 305°
2026-05-08 22:14 -15.86876 -47.91788 3470 ft 0 kts 356°
2026-05-08 22:14 -15.86867 -47.91787 3471 ft 2 kts
2026-05-08 22:14 -15.86853 -47.91787 3471 ft 2 kts 357°
2026-05-08 22:14 -15.86843 -47.91788 3471 ft 0 kts 358°